LEMUR-2-DISCLAIMER (55014 NORAD) Tracking and Keplerian Element Data

This shows tracking and keplerian element data for the satellite.

Feedback or suggestion? Click here.




ElementValue
Catalog55014
NameLEMUR-2-DISCLAIMER
Epoch Orbit1245
Epoch Day84.91512088
Epoch Year2023
RAAN145.734
Inclination97.489
Eccentricity0.0009392
Argument of Perigee308.4459
Mean Anonmoly51.593
Mean Motion15.15529374
Decay Rate0.0002687
L11 55014U 23001F 23084.91512088 .00026870 00000+0 14157-2 0 9994
L22 55014 97.4890 145.7340 0009392 308.4459 51.5930 15.15529374 12451



Live tracking and technical data element details for LEMUR-2-DISCLAIMER (NORAD 55014). LEMUR-2-DISCLAIMER can be tracked NOW for your location showing map with azimuth and elevation plus other details from your city location.







IsCatalogInMostPopularTable: catalog: 55014, numindb: 10
Update: records affected: 1



GetName: 55014 LEMUR-2-DISCLAIMER

Hit Count: updated at: Mon, 27 Mar 2023 06:45:27 GMT